Dewpoint
43 41 41 41 42 40 40 39 40 39 39 38 38 40 41 41 41 38 38 39 31 28 28 34 33 28 28 27 21 25 22 26 26 23 22 23 25 26 27 27 27 23 22 20 21 16 16 28 26 23 27 30 31 30
43 42 42 42 41 40 40 40 40 39 39 39 39 41 42 42 41 39 36 39 36 28 27 35 34 32 32 31 29 29 29 30 30 23 23 25 24 27 25 22 28 22 23 22 23 21 27 30 29 31 29 23 23 28
42 43 42 42 41 39 39 40 40 39 39 40 40 40 40 41 41 40 37 38 33 28 28 31 32 35 35 33 33 28 31 32 28 30 27 28 24 28 24 26 27 29 29 23 24 27 27 28 25 24 23 22 23 24
42 42 42 41 40 38 39 39 39 39 39 39 40 40 41 41 40 37 36 38 33 31 27 30 34 33 35 35 34 33 32 31 30 30 26 25 23 29 27 27 25 27 27 25 25 27 28 29 24 23 21 20 20 21
41 42 41 41 40 38 38 39 39 39 39 39 39 39 40 41 40 38 38 38 37 30 25 28 32 35 33 33 33 33 32 30 27 24 23 22 28 28 29 27 25 27 27 25 22 27 26 27 24 21 19 19 19 18
41 41 40 40 39 39 39 39 39 39 38 38 38 38 39 40 38 32 27 35 39 35 28 25 31 32 33 32 31 31 31 30 28 27 25 26 29 26 23 23 27 28 30 31 29 31 29 27 22 20 19 18 18 18
40 40 39 39 39 39 38 38 39 38 38 38 37 36 37 39 36 31 28 39 40 37 29 25 27 32 32 29 30 29 30 29 28 28 27 26 26 28 24 23 27 29 29 29 29 27 26 25 20 19 19 19 18 17
40 39 38 38 39 39 39 38 38 38 37 37 37 36 37 37 34 32 38 42 41 33 33 25 24 28 30 27 25 31 28 29 27 27 28 27 26 27 24 27 28 29 29 28 28 27 24 21 19 18 18 17 16 16
40 40 39 38 39 39 38 38 38 38 37 37 38 37 33 32 29 34 40 41 40 34 26 26 23 24 31 30 30 28 30 22 27 25 26 26 24 24 27 27 27 29 27 27 22 20 20 18 18 17 17 16 15 15
40 40 38 38 38 38 38 38 37 37 37 38 33 29 26 31 37 40 36 33 31 34 32 26 27 25 27 28 26 24 26 24 23 25 27 24 24 27 28 29 27 28 27 25 21 18 18 17 17 16 16 16 15 14
40 39 38 38 38 39 38 37 37 37 35 32 29 30 35 40 37 34 29 27 29 27 29 26 27 27 30 25 23 25 25 25 21 22 24 22 23 23 25 26 27 27 26 25 23 19 18 18 17 16 15 15 14 13
40 39 38 38 37 38 37 37 37 32 31 31 35 38 38 34 31 26 24 27 26 23 27 26 28 29 30 31 26 27 25 24 19 25 25 20 22 21 22 22 21 22 22 22 21 18 18 17 17 16 14 14 13 12
38 38 38 38 37 37 37 36 34 36 37 37 34 31 29 29 23 22 19 22 23 25 27 28 28 30 31 28 26 25 21 21 23 24 21 19 21 20 20 20 19 20 19 19 18 18 17 16 16 14 13 12 11 9
38 39 38 38 37 38 38 36 38 34 30 28 25 22 23 21 22 21 23 22 25 26 27 28 28 28 28 26 24 20 20 23 19 17 18 22 21 20 20 20 18 18 18 17 17 16 16 15 13 13 10 9 7 6
37 38 38 37 37 37 36 37 35 34 29 26 27 20 22 23 25 29 30 30 31 28 28 26 25 25 24 23 22 20 20 19 17 17 19 22 21 20 19 18 17 16 15 14 14 13 12 11 10 9 6 4 3 1
37 36 35 37 37 37 36 35 35 33 30 26 24 23 26 27 26 27 30 30 32 27 26 25 23 20 20 20 20 17 16 15 16 20 23 22 21 19 18 17 16 14 14 13 12 11 10 9 8 7 5 3 1 1
32 33 36 35 37 35 33 30 29 27 26 23 22 27 26 26 27 29 31 33 32 26 23 23 19 19 22 21 19 18 17 19 25 26 21 21 19 17 16 15 14 13 12 11 10 10 9 9 9 8 6 6 7 6
31 35 36 36 33 33 33 30 28 26 22 23 22 26 28 28 28 28 31 33 32 29 28 26 23 22 21 18 20 19 25 25 26 24 20 18 16 16 16 14 13 13 11 10 11 10 10 10 10 9 9 8 8 8
35 37 36 34 32 29 26 27 29 22 22 23 22 27 29 28 28 30 31 32 34 34 30 28 25 23 23 22 24 24 26 24 24 22 18 16 16 16 14 14 13 12 11 11 12 11 12 12 12 11 11 13 13 14
38 37 35 34 34 28 25 26 29 26 23 23 26 25 26 26 28 28 29 30 33 32 31 28 25 24 26 27 27 26 25 23 22 21 18 16 15 15 14 14 14 12 12 13 14 14 15 15 15 14 14 15 16 15
35 36 35 34 32 30 28 26 24 23 26 23 25 26 25 28 27 25 24 30 29 28 27 28 27 26 25 27 26 25 24 23 22 21 19 17 15 16 15 16 15 15 14 14 14 14 15 14 14 15 14 13 13 12
34 35 33 33 28 28 26 30 26 26 24 26 26 27 24 22 23 24 27 27 26 26 29 28 26 25 26 26 26 24 23 22 20 18 17 17 16 16 16 16 16 15 15 14 15 14 14 16 16 15 12 9 10 10
35 31 28 28 23 25 23 31 26 26 21 22 26 22 23 23 26 29 24 25 24 25 26 25 24 25 25 24 24 23 21 20 19 18 17 17 17 17 17 17 17 15 15 15 16 16 15 14 12 11 11 10 9 8
31 24 19 20 21 21 25 25 28 25 24 23 22 20 23 24 28 25 22 23 24 22 24 24 25 24 25 25 24 22 21 20 19 18 18 18 17 17 18 18 18 17 16 16 18 17 14 11 10 11 9 8 7 7
19 21 24 20 24 22 21 22 24 24 20 22 22 22 23 25 21 21 19 21 23 22 22 24 24 23 22 21 21 22 22 20 19 18 19 18 17 18 18 18 18 18 18 16 15 14 11 8 8 7 7 7 9 9
16 21 22 21 22 21 19 19 20 20 21 22 23 23 23 21 20 18 20 18 21 23 22 22 22 22 21 21 21 21 21 21 20 18 19 20 18 16 15 15 15 14 14 15 13 11 10 9 8 8 8 9 8 8
20 20 23 25 25 25 22 22 22 21 20 20 21 22 21 18 17 16 17 19 19 21 25 25 24 23 21 20 19 19 19 19 18 17 15 15 15 16 16 15 15 13 12 12 11 11 11 10 10 10 10 8 8 8
22 23 19 22 23 23 21 21 22 21 20 20 22 19 18 17 14 13 16 19 21 21 21 20 20 20 19 17 16 16 15 14 13 13 13 12 10 10 11 11 11 10 8 8 8 8 9 9 9 8 7 7 5 4
21 22 23 19 18 17 16 17 17 16 17 18 18 14 11 13 13 12 15 16 20 19 18 17 16 16 15 15 15 15 15 15 16 15 14 12 11 10 7 8 7 7 8 8 9 7 6 5 5 4 4 4 4 -1
20 22 18 16 16 15 14 16 16 17 17 16 14 13 12 13 14 14 14 15 17 16 16 16 16 16 15 14 13 13 12 14 14 16 14 11 10 8 6 6 4 5 6 6 7 7 8 6 6 5 3 1 -0 -1
23 21 16 14 12 14 16 17 18 17 15 12 11 10 10 12 13 13 13 14 16 17 16 16 15 15 15 14 13 14 13 11 10 8 8 8 8 6 5 5 5 5 5 5 3 3 3 3 1 1 -1 -2 -4 -6
20 16 13 11 11 15 17 16 15 13 12 11 10 9 9 7 8 9 12 13 15 14 13 14 13 11 11 11 11 10 10 9 9 9 9 9 8 8 8 8 7 6 3 2 2 1 -0 -1 -2 -3 -4 -7 -11 -12
14 12 12 11 12 12 13 14 13 13 10 11 11 9 6 5 6 8 11 12 10 10 9 8 7 7 7 7 8 8 8 9 9 9 7 6 5 5 4 3 3 3 2 0 -1 -1 -2 -3 -6 -9 -12 -12 -11 -12
Wind_Speed
27 24 25 26 26 25 25 23 23 21 18 16 14 11 10 11 10 6 6 6 4 3 1 1 1 2 2 3 1 3 2 4 7 6 3 2 2 3 2 4 5 7 6 5 4 4 3 20 3 4 8 7 7 9
26 29 24 23 22 25 26 24 25 21 19 17 14 12 11 12 10 6 5 4 4 5 2 2 6 6 3 5 4 1 2 1 2 3 1 1 3 4 4 3 8 6 5 2 6 4 6 8 13 10 7 9 5 9
24 30 28 23 23 22 24 23 23 23 20 16 15 13 11 12 8 7 7 2 5 3 2 3 3 5 4 8 4 2 1 0 2 1 2 1 2 2 4 2 2 2 2 5 3 6 10 9 10 10 14 13 12 14
29 29 28 26 25 22 22 25 24 22 19 16 15 14 13 13 11 8 6 3 6 5 4 2 4 2 2 9 5 2 2 3 3 1 0 1 1 1 2 2 3 2 4 5 6 8 10 10 9 11 13 14 16 15
29 31 29 27 24 22 20 24 24 23 21 17 16 14 13 13 14 14 9 5 4 2 4 2 4 3 2 5 5 3 2 3 2 1 1 1 2 1 2 3 3 4 1 0 2 11 8 7 8 11 12 12 11 15
32 31 29 28 27 25 22 22 23 22 20 18 16 15 13 12 9 6 3 3 1 2 3 4 3 2 2 2 3 2 2 2 2 0 2 3 3 1 1 2 1 3 5 1 4 5 13 13 12 11 14 12 12 13
29 30 30 27 26 28 27 23 23 23 21 19 16 14 12 9 7 5 4 2 4 2 3 2 3 1 1 2 3 3 4 1 1 0 2 2 1 2 2 2 9 7 8 11 17 18 9 9 8 13 16 14 14 14
28 30 28 25 25 25 24 23 24 24 22 19 16 13 12 11 7 4 4 0 5 4 3 2 1 1 2 2 1 2 1 3 1 1 1 2 1 1 2 6 13 13 11 9 5 6 11 16 18 15 14 13 13 11
32 32 30 26 26 25 23 23 24 25 22 20 19 14 6 4 3 2 0 8 5 3 2 2 5 4 0 3 2 1 1 1 2 1 2 0 1 4 2 16 15 15 12 12 13 15 15 18 16 13 13 10 11 9
34 32 32 27 27 25 24 25 26 26 24 22 6 4 3 3 4 10 3 2 3 1 1 2 1 4 3 2 1 1 2 0 1 2 1 1 3 2 3 14 14 16 13 17 16 10 13 12 13 10 8 7 9 8
34 34 31 28 27 26 26 27 28 27 15 3 4 3 3 9 3 2 3 2 3 3 5 4 7 5 2 4 4 2 1 1 1 1 1 2 4 4 6 12 12 14 16 15 8 10 11 15 16 14 11 10 9 9
33 32 29 28 27 26 26 28 28 8 6 8 5 5 4 3 2 3 4 3 5 5 6 7 7 6 3 2 2 2 1 1 2 3 1 4 3 9 13 15 13 14 15 11 12 16 15 14 14 14 12 11 9 10
28 30 29 28 27 25 28 30 16 18 14 4 3 4 5 2 4 7 8 4 4 6 8 7 9 6 3 4 3 2 1 3 3 1 4 5 11 12 13 16 15 13 15 16 15 15 16 15 13 13 13 11 12 11
27 28 27 27 25 26 30 22 17 7 6 2 3 5 4 4 6 8 4 6 6 5 14 15 7 3 3 3 1 2 2 1 2 3 6 6 17 18 14 13 18 16 15 16 16 16 17 16 14 12 14 14 13 11
24 28 27 25 25 27 23 16 11 6 3 3 1 3 5 3 3 1 1 2 1 9 14 10 6 4 2 4 2 0 2 3 5 6 4 8 18 20 18 15 17 18 17 17 16 16 16 16 16 14 11 10 9 9
26 21 7 25 26 26 20 13 7 3 2 2 1 1 3 2 4 2 1 3 1 11 6 5 4 3 2 6 4 5 3 6 4 4 3 13 18 17 17 17 16 17 18 18 16 16 16 16 16 13 9 8 8 9
12 4 22 26 28 20 13 5 3 4 2 0 1 1 0 1 1 1 1 1 2 7 5 4 5 4 4 2 4 5 7 4 3 5 6 11 20 20 18 17 17 17 17 17 15 15 14 11 10 10 10 9 9 9
8 22 30 29 20 10 3 4 3 2 1 3 1 0 0 1 2 1 3 5 2 3 6 3 6 4 6 6 5 5 5 2 1 3 8 9 13 16 18 20 18 17 18 17 16 14 14 13 12 11 9 6 7 9
20 26 29 22 9 5 4 1 1 2 3 1 2 2 1 1 3 4 3 5 2 3 3 3 3 5 5 7 6 5 6 7 6 4 3 5 14 18 17 15 17 16 17 17 16 14 14 13 12 10 9 6 9 9
31 29 23 9 3 3 3 2 1 1 3 4 1 3 1 1 2 1 3 2 3 1 5 5 6 5 5 4 6 5 7 11 12 7 4 5 9 14 16 17 16 15 14 12 11 10 10 10 9 9 9 9 10 13
18 18 12 4 3 4 3 4 4 4 4 4 3 5 2 0 2 2 3 2 2 4 5 6 6 5 4 2 3 5 10 14 13 12 10 13 12 12 13 12 14 13 13 14 14 12 12 13 11 10 10 11 11 10
6 9 4 3 3 2 1 2 0 1 2 3 7 4 3 3 4 5 3 4 5 6 6 6 6 9 8 5 5 5 7 9 8 8 10 15 14 13 14 14 14 15 14 15 13 14 13 11 8 7 11 10 7 8
10 3 4 2 2 1 1 4 4 4 3 3 3 1 3 3 3 5 3 5 6 4 5 4 5 4 7 5 7 6 8 11 10 10 11 10 10 12 14 14 14 16 14 12 12 11 11 8 7 10 9 7 6 6
3 3 4 5 3 2 1 4 4 5 3 4 4 3 3 3 4 2 5 4 3 2 3 5 9 7 6 7 6 8 7 7 9 8 10 12 12 11 12 13 13 12 12 9 11 11 11 13 12 9 8 7 6 6
4 3 3 4 3 2 3 3 4 5 4 5 5 2 4 3 3 3 4 2 1 1 0 4 5 3 5 4 5 6 6 11 12 11 9 10 11 11 8 6 6 8 9 9 9 10 12 12 11 10 9 8 8 8
3 5 8 9 5 6 9 5 7 7 5 6 6 3 4 5 4 6 1 6 5 1 5 8 7 4 4 3 8 8 7 8 11 9 6 11 14 16 14 13 10 4 3 8 12 13 13 12 12 10 8 6 6 5
4 6 4 3 3 3 4 2 3 3 6 7 6 6 6 4 6 1 3 6 5 6 5 5 6 5 6 7 7 8 9 9 7 9 9 9 7 6 13 15 15 7 6 9 10 9 12 12 9 7 5 2 2 2
3 3 6 6 4 1 3 5 6 7 5 2 6 6 5 4 2 4 3 8 8 5 6 10 8 6 8 9 11 13 13 14 17 16 17 16 13 10 10 12 13 14 12 10 10 9 8 9 8 9 7 5 5 4
4 3 4 4 3 1 1 2 3 1 2 1 4 4 2 3 4 5 5 10 5 3 6 9 9 12 14 13 13 12 10 9 16 13 9 8 6 7 7 14 14 14 14 14 12 11 11 11 10 9 8 7 6 8
5 5 4 2 4 5 2 1 2 2 4 4 4 4 3 2 5 7 7 7 6 7 7 8 7 9 12 14 13 11 10 8 5 4 7 8 8 13 11 13 14 13 13 14 13 11 9 8 7 5 7 8 7 7
6 4 4 3 2 1 2 3 5 5 4 4 4 4 4 3 1 9 11 10 4 9 11 11 10 8 11 11 11 11 8 9 8 9 11 15 16 14 14 13 13 13 12 11 12 11 11 10 9 9 8 7 7 7
3 4 6 4 2 1 2 1 2 3 2 3 2 2 2 3 3 8 14 11 7 9 8 10 11 9 9 11 11 11 13 11 12 13 15 16 15 14 13 12 12 12 13 12 12 11 11 10 9 8 8 6 6 6
4 4 4 4 3 3 2 1 2 3 3 2 2 2 2 3 3 2 5 12 7 9 11 11 11 12 13 14 14 13 13 14 17 18 19 18 17 16 14 13 13 13 13 12 11 10 10 10 9 8 7 6 6 6
Wind_Direction
175 176 171 175 173 173 173 170 161 156 149 150 153 151 132 125 118 85 88 32 95 105 154 60 53 138 121 85 24 308 12 355 19 55 52 0 15 19 6 50 349 27 356 19 355 75 52 353 38 95 115 76 78 98
182 181 176 165 169 168 170 166 160 151 151 155 149 139 125 129 114 105 96 34 46 88 159 273 261 242 190 178 155 340 100 99 73 57 26 47 6 0 7 34 13 40 42 67 26 96 84 22 59 61 92 98 80 114
181 168 170 168 164 169 166 163 154 153 151 148 146 134 121 117 106 103 105 60 69 71 39 37 17 7 173 224 171 119 337 38 68 172 317 4 29 0 23 46 100 77 72 93 137 110 108 92 56 61 89 82 71 87
157 160 158 154 158 166 169 162 154 149 147 146 143 131 121 105 101 95 104 99 85 101 129 155 345 108 113 159 177 172 140 63 74 65 284 336 75 33 359 68 89 347 354 118 96 120 108 94 89 93 92 85 81 82
160 158 157 160 158 165 164 160 154 150 148 143 134 132 120 109 100 93 86 67 81 117 150 180 320 344 153 144 171 155 93 65 44 37 9 275 271 88 43 71 44 5 33 19 179 155 110 127 116 118 103 96 96 102
159 157 158 159 162 156 160 164 153 148 146 141 140 137 126 120 104 78 81 10 36 77 98 145 316 272 184 142 133 88 71 91 96 139 278 277 262 96 124 110 139 82 27 119 138 94 113 123 118 118 109 103 96 96
145 148 146 144 148 150 154 158 149 149 147 142 137 131 124 106 65 75 131 103 165 77 82 107 118 60 12 69 64 56 49 72 101 171 252 271 313 77 118 194 157 120 102 101 111 108 99 127 146 123 116 106 97 84
144 141 141 141 140 141 142 146 149 148 145 138 125 120 119 99 78 60 343 94 150 88 79 107 130 120 357 99 104 23 26 17 17 251 283 247 321 76 211 160 147 133 126 121 117 105 129 115 122 119 119 120 108 101
152 148 150 149 144 140 141 146 146 143 137 126 117 104 81 61 102 190 335 81 56 73 121 127 152 169 93 106 106 86 117 297 310 246 259 155 285 221 185 174 166 160 164 149 117 116 119 126 128 128 128 125 120 116
146 151 150 147 141 140 144 142 142 139 130 125 91 65 113 202 174 129 56 91 41 4 339 222 230 156 150 91 144 150 355 299 276 254 52 228 246 199 282 183 166 166 151 137 133 142 134 139 143 139 130 118 121 122
154 148 149 146 141 143 140 142 140 131 121 94 124 127 104 143 102 64 126 161 147 218 204 214 199 148 193 159 187 204 162 43 310 273 228 265 256 194 130 129 156 159 157 170 157 154 161 155 151 143 138 133 131 125
144 149 151 147 143 144 143 146 140 117 154 158 137 111 116 118 111 143 179 167 204 223 187 176 194 193 155 137 131 163 95 78 252 330 258 262 233 151 139 130 125 133 140 148 155 144 137 139 139 137 139 136 128 125
144 146 146 146 145 146 148 148 137 121 109 56 94 138 142 157 157 189 194 188 213 194 177 163 145 163 115 59 81 166 152 243 322 263 247 244 165 155 142 131 124 120 122 122 121 121 124 126 126 137 138 136 134 131
143 142 143 145 147 147 147 144 130 107 88 101 128 133 180 171 215 205 199 188 219 160 153 148 117 125 112 85 98 134 219 223 257 239 244 213 176 163 159 150 141 149 141 137 134 134 137 137 136 138 146 149 146 149
144 141 141 143 144 147 140 113 90 53 76 74 64 169 191 239 250 287 254 285 352 158 133 115 79 94 99 111 182 162 200 241 225 238 244 191 166 161 163 159 153 153 152 150 149 147 145 146 146 146 156 153 150 152
142 122 122 144 141 130 112 90 51 68 60 54 99 13 329 223 154 151 325 165 178 150 105 80 108 118 131 140 150 201 220 229 250 232 249 159 163 165 166 166 164 161 161 158 155 153 153 156 158 157 159 174 180 182
100 96 146 135 133 120 90 73 55 61 85 322 341 239 223 237 290 264 31 43 131 149 151 135 146 171 125 163 210 199 220 235 266 274 200 185 174 173 165 162 163 161 159 157 155 159 160 152 141 150 180 208 212 219
97 138 133 126 115 91 56 45 85 93 152 234 52 349 346 28 330 360 351 2 141 145 151 165 131 167 183 189 225 232 216 238 83 218 187 176 164 162 165 168 166 163 162 164 164 159 157 161 173 193 206 209 214 232
131 136 138 132 122 104 112 119 120 156 231 249 234 149 302 298 244 284 304 309 41 70 123 147 195 204 211 213 234 206 203 193 185 171 167 175 171 169 165 159 158 162 166 167 166 172 178 188 195 201 212 208 233 246
130 136 137 109 56 86 98 86 147 173 195 217 170 213 205 258 331 311 294 307 136 170 198 215 215 202 199 210 197 210 198 166 145 161 189 183 172 163 167 164 169 167 161 162 168 169 180 199 218 223 231 249 240 238
123 142 139 52 63 56 103 152 198 207 154 173 189 164 226 353 253 227 223 172 166 211 228 228 221 206 197 233 214 171 163 167 187 187 188 185 183 169 163 159 157 157 165 173 182 196 197 208 216 215 227 227 218 217
89 91 96 43 82 68 76 210 301 171 145 129 152 172 218 217 224 217 167 184 230 232 208 195 212 188 183 184 177 172 166 150 137 125 121 133 159 169 172 169 161 172 180 187 190 202 214 230 233 228 207 198 192 215
112 83 63 63 83 86 259 184 180 187 157 193 148 197 221 216 217 132 234 228 247 236 197 199 184 177 173 144 130 122 146 153 156 158 156 158 155 156 159 166 167 176 188 201 200 211 223 210 189 177 173 176 196 219
106 95 156 181 174 243 258 206 174 149 134 168 179 219 227 207 154 200 251 247 249 331 205 198 159 136 126 150 155 159 150 140 134 134 147 147 156 165 163 168 177 189 197 196 198 203 190 178 169 171 182 201 212 223
142 188 145 210 203 182 213 199 178 183 183 189 198 206 187 138 188 238 244 278 265 277 61 126 136 94 166 128 131 142 145 159 163 165 166 150 135 130 134 144 179 206 187 192 203 197 179 170 177 187 197 208 227 241
197 198 192 196 191 194 194 180 196 185 175 189 214 168 151 175 214 235 246 343 335 257 192 186 175 148 99 118 162 168 170 145 134 144 150 160 161 161 161 161 165 173 170 185 169 173 179 188 195 200 208 223 234 237
245 216 210 223 211 196 193 205 165 165 186 203 179 164 167 221 234 182 357 19 333 333 315 184 173 175 170 146 110 93 100 113 128 130 106 92 91 141 170 175 186 166 137 153 165 177 194 200 204 199 197 150 117 153
254 193 193 190 186 303 217 173 180 195 194 220 169 191 206 218 207 333 324 333 338 3 63 60 56 103 122 123 122 117 99 104 104 102 90 64 52 59 84 96 103 107 102 106 112 113 129 142 147 146 139 129 104 69
209 188 153 161 122 106 148 183 188 131 334 258 186 178 150 61 355 333 318 329 343 77 93 101 84 93 91 84 78 83 103 125 139 144 146 140 118 78 80 105 105 103 103 98 92 98 104 111 117 118 113 110 99 84
184 149 134 144 180 197 180 163 151 114 57 78 99 97 78 66 9 350 358 20 68 92 98 101 105 119 126 124 115 85 49 47 54 143 178 188 172 146 131 119 114 112 107 105 104 96 89 88 92 85 89 83 76 66
150 112 98 103 155 178 123 77 94 88 73 62 54 106 128 151 47 19 18 3 68 107 107 103 90 89 110 118 124 121 96 35 62 87 102 112 126 129 128 126 122 116 111 107 104 105 102 95 96 98 87 77 64 56
97 128 143 143 145 117 73 92 108 110 103 100 98 89 94 78 59 11 0 354 100 94 88 104 104 89 90 91 81 79 99 102 93 99 105 111 113 115 115 117 120 116 112 109 104 103 101 101 94 93 94 79 61 49
102 92 99 107 128 176 211 113 102 97 70 102 107 107 86 103 122 348 5 27 70 108 107 98 92 88 85 87 93 89 83 85 88 90 93 99 104 106 107 111 110 111 109 105 104 104 102 102 97 89 81 73 59 42